Powrót do katalogu

THORAD AGENA D DEB

AktywnyPO
NORAD 4716·DEBRIS·🇺🇸 United States

Wystrzelony Apr 8, 1970 z Vandenberg Space Force Base

Loading…

Następne Przeloty (najbliższe 24 godziny)

TLE

ŚwieżeSource: Space-Track

Epoka: Sep 14, 2026, 09:40 UTC

1 04716U 70025CA  26257.40313913  .00001338  00000-0  83232-3 0  9994
2 04716  99.9782  58.7498 0005365  83.6258 306.4940 14.07049345838053

Śledź THORAD AGENA D DEB w czasie rzeczywistym z AllMySat

Download on the App Store